Temp
20 20 19 19 18 20 19 18 18 19 19 18 18 18 18 17 17 16 16 17 16 16 16 16 16 16 16 16 16 16 16 16 16 16 15 16 16 16 15 15 15 15 15
20 20 20 19 18 19 21 18 18 18 18 18 18 18 18 18 17 16 17 17 16 16 16 16 16 16 16 16 16 16 16 16 15 16 16 15 15 15 15 15 15 14 14
18 19 18 17 18 18 20 18 18 18 18 18 18 18 18 18 18 18 16 17 17 16 16 17 16 16 16 16 16 16 16 16 16 16 16 15 15 15 15 14 15 14 14
19 18 17 16 17 17 18 18 18 18 18 18 18 18 18 18 18 18 18 17 17 17 17 17 17 17 17 16 16 16 16 16 15 16 16 15 15 14 15 14 14 14 14
20 20 20 17 18 17 18 18 18 18 18 19 18 18 18 18 19 18 18 18 18 17 17 17 17 17 16 16 16 16 16 15 16 16 15 15 15 14 15 15 15 13 14
20 19 19 19 18 19 17 19 19 18 18 18 18 18 18 19 20 19 18 18 18 18 17 18 17 17 17 16 16 16 16 16 16 16 16 18 16 15 15 14 14 13 13
17 18 18 19 18 19 17 18 18 19 18 18 18 18 18 19 19 18 18 17 17 18 17 17 17 18 18 17 16 16 16 16 16 16 15 16 16 15 15 15 15 14 14
16 18 18 17 16 16 17 18 18 18 18 17 18 18 18 18 18 19 19 18 17 17 17 17 17 17 17 17 16 16 16 15 16 16 15 14 15 15 15 16 15 14 13
18 16 16 17 17 17 17 16 17 16 16 19 18 17 17 17 19 19 19 18 17 17 17 17 17 16 16 16 16 16 16 15 15 15 15 15 14 15 14 15 14 13 13
14 15 15 15 17 17 17 17 17 16 17 17 18 17 17 17 18 19 19 18 17 17 17 17 16 16 16 16 16 16 15 15 15 15 15 15 15 14 14 14 15 13 13
14 14 15 14 16 17 17 17 17 16 16 16 16 17 17 16 17 19 19 18 16 17 17 17 17 16 16 16 16 16 15 15 15 14 14 13 13 13 14 13 13 13 13
15 15 14 15 16 16 17 16 16 15 14 15 16 16 15 16 19 17 17 17 16 16 17 18 17 16 16 16 16 16 15 15 15 14 14 14 14 13 13 13 13 13 13
12 12 13 14 15 15 15 14 14 16 16 16 15 15 16 16 17 17 17 16 16 15 15 16 17 16 16 16 16 15 15 14 15 15 15 14 14 14 14 14 13 14 13
12 13 13 14 14 14 13 13 14 14 14 15 14 14 15 16 16 16 17 17 16 15 15 14 15 15 15 15 15 15 14 14 15 15 16 14 14 14 14 14 13 13 13
12 13 14 15 14 13 13 13 13 13 13 14 13 13 13 14 15 15 15 15 14 14 13 13 13 14 14 14 14 14 13 14 15 15 15 14 14 14 14 14 13 13 13
12 14 14 14 15 15 13 13 13 13 13 13 12 13 13 13 13 14 14 14 14 14 13 13 13 13 13 14 13 14 14 14 14 15 15 14 14 14 14 14 13 13 13
12 12 13 14 15 16 15 14 13 13 13 12 12 13 13 14 13 13 14 13 14 13 13 13 13 12 12 13 14 14 14 14 14 14 14 14 13 13 13 13 12 12 12
11 12 13 14 15 15 16 15 13 14 13 12 11 12 13 13 14 14 14 14 14 14 13 13 13 12 12 13 13 13 12 13 13 13 13 13 13 13 13 12 12 11 11
12 13 13 13 14 14 14 14 13 13 12 12 12 11 12 12 13 14 14 14 14 14 13 12 12 12 12 12 12 12 12 12 12 12 12 12 12 11 11 11 11 11 11
13 14 13 13 14 14 16 14 14 12 12 12 11 11 11 12 11 12 12 13 13 13 12 12 12 12 12 12 12 12 11 11 11 11 11 11 11 11 11 10 10 10 10
13 14 14 14 16 16 16 15 14 12 12 11 11 10 9 10 10 10 11 11 11 11 11 11 12 12 12 12 11 10 11 10 10 10 10 10 10 10 9 9 9 9 9
13 14 14 15 16 16 15 15 13 12 12 11 11 10 10 10 10 10 10 10 10 10 11 11 11 11 11 10 10 10 10 10 10 10 10 10 10 9 9 9 9 9 9
12 12 12 12 13 13 13 13 11 11 11 10 10 10 9 9 9 9 10 10 9 10 9 10 10 10 10 9 9 9 9 9 9 9 9 9 9 9 9 9 9 10 10
12 11 12 12 12 12 11 10 11 10 11 10 10 10 9 10 9 9 9 9 9 9 9 9 9 9 9 8 8 9 9 9 8 8 8 8 8 8 9 9 10 10 10
13 13 13 13 12 12 10 10 10 10 10 9 10 10 10 10 10 9 9 9 9 8 8 8 9 8 8 8 8 8 9 9 8 8 8 8 8 8 8 9 9 9 9
13 13 13 12 12 12 11 10 10 10 9 10 9 10 10 9 10 9 9 8 8 8 8 8 8 8 8 9 9 8 8 8 8 7 7 7 7 8 8 9 8 9 8
Height
1453 1457 1461 1466 1469 1473 1478 1481 1485 1490 1494 1496 1501 1504 1503 1504 1503 1503 1502 1504 1504 1506 1507 1507 1507 1507 1508 1510 1513 1515 1517 1518 1518 1518 1517 1517 1518 1518 1519 1521 1521 1522 1524
1450 1452 1453 1455 1460 1466 1472 1483 1483 1487 1490 1493 1496 1498 1500 1501 1504 1503 1501 1500 1500 1502 1504 1505 1507 1507 1506 1508 1510 1511 1512 1513 1514 1514 1514 1515 1515 1516 1516 1517 1519 1520 1521
1441 1446 1444 1410 1456 1473 1467 1479 1483 1484 1485 1489 1492 1494 1496 1498 1501 1500 1500 1499 1499 1499 1499 1501 1502 1504 1504 1505 1506 1508 1509 1509 1510 1511 1511 1512 1513 1512 1513 1514 1515 1516 1517
1442 1446 1448 1436 1431 1473 1470 1476 1483 1483 1482 1486 1489 1491 1491 1493 1499 1498 1497 1498 1497 1497 1497 1498 1499 1501 1501 1501 1502 1503 1504 1505 1506 1506 1507 1508 1509 1509 1510 1510 1512 1513 1515
1444 1444 1447 1446 1461 1475 1463 1477 1476 1481 1480 1482 1485 1487 1486 1490 1494 1496 1495 1494 1495 1495 1496 1495 1496 1497 1498 1498 1499 1500 1500 1501 1502 1502 1503 1504 1505 1504 1505 1508 1509 1511 1512
1439 1441 1439 1445 1452 1458 1465 1468 1467 1472 1475 1478 1478 1482 1482 1485 1489 1494 1492 1494 1493 1492 1492 1492 1492 1492 1493 1494 1494 1495 1496 1496 1497 1498 1499 1500 1500 1501 1501 1502 1504 1507 1509
1434 1434 1438 1442 1454 1457 1460 1463 1460 1463 1468 1472 1474 1475 1479 1481 1482 1487 1488 1489 1491 1491 1489 1488 1488 1489 1488 1489 1490 1491 1492 1492 1492 1493 1494 1495 1496 1495 1495 1496 1498 1501 1504
1436 1435 1435 1446 1451 1454 1457 1458 1459 1462 1463 1467 1470 1469 1474 1475 1475 1479 1482 1483 1484 1485 1485 1484 1484 1485 1485 1486 1486 1486 1486 1487 1486 1487 1488 1490 1490 1490 1491 1492 1494 1496 1500
1437 1441 1443 1446 1451 1456 1453 1455 1455 1461 1459 1458 1462 1463 1467 1468 1469 1472 1473 1475 1476 1478 1480 1479 1478 1478 1479 1480 1483 1483 1483 1484 1483 1484 1482 1483 1486 1488 1489 1488 1490 1493 1495
1443 1446 1447 1448 1447 1451 1451 1450 1453 1458 1456 1452 1456 1459 1460 1462 1462 1463 1466 1467 1469 1471 1473 1472 1471 1471 1472 1474 1475 1477 1478 1479 1480 1479 1481 1478 1482 1483 1485 1486 1485 1490 1492
1444 1447 1448 1449 1446 1449 1448 1448 1449 1451 1449 1446 1450 1454 1453 1455 1455 1453 1455 1457 1461 1464 1465 1465 1465 1465 1466 1465 1469 1471 1472 1474 1476 1478 1479 1479 1478 1480 1481 1483 1483 1486 1488
1442 1444 1444 1444 1444 1444 1445 1446 1444 1446 1446 1446 1447 1447 1447 1445 1444 1445 1446 1447 1451 1454 1455 1456 1456 1456 1458 1460 1461 1464 1467 1468 1470 1472 1475 1475 1478 1480 1480 1480 1482 1484 1486
1445 1444 1442 1442 1441 1439 1439 1437 1437 1438 1438 1440 1441 1440 1439 1439 1440 1438 1440 1439 1441 1443 1444 1447 1447 1450 1450 1453 1454 1458 1461 1465 1468 1468 1469 1469 1471 1476 1479 1480 1480 1481 1485
1443 1444 1444 1442 1442 1439 1437 1437 1435 1434 1434 1435 1434 1434 1435 1435 1436 1435 1436 1433 1434 1435 1434 1434 1436 1439 1441 1444 1446 1449 1453 1458 1462 1465 1465 1465 1467 1469 1474 1479 1480 1480 1482
1447 1448 1448 1446 1442 1439 1437 1434 1432 1431 1429 1428 1431 1430 1428 1429 1430 1427 1427 1428 1430 1428 1427 1427 1426 1427 1432 1433 1437 1441 1446 1451 1455 1460 1462 1462 1463 1464 1467 1474 1475 1477 1480
1450 1448 1444 1443 1442 1441 1438 1433 1431 1429 1426 1427 1427 1425 1424 1421 1421 1421 1422 1420 1422 1421 1421 1421 1420 1422 1424 1426 1429 1433 1440 1445 1449 1454 1456 1458 1459 1463 1463 1469 1473 1474 1477
1449 1448 1445 1443 1440 1438 1436 1433 1431 1429 1425 1423 1422 1419 1415 1415 1414 1413 1415 1414 1414 1414 1411 1413 1413 1416 1419 1420 1422 1428 1432 1438 1445 1448 1451 1455 1456 1459 1459 1465 1469 1472 1474
1445 1443 1440 1439 1437 1435 1433 1430 1430 1428 1425 1422 1417 1413 1410 1406 1406 1405 1406 1405 1405 1405 1404 1406 1406 1409 1413 1414 1416 1421 1428 1433 1438 1443 1448 1451 1454 1456 1459 1462 1465 1468 1470
1442 1440 1439 1438 1435 1432 1429 1428 1427 1425 1421 1420 1416 1413 1407 1402 1398 1397 1398 1397 1399 1399 1400 1402 1402 1404 1408 1410 1414 1418 1422 1427 1431 1438 1443 1448 1452 1455 1457 1460 1462 1464 1467
1438 1437 1438 1436 1433 1430 1427 1425 1424 1423 1419 1418 1416 1411 1406 1401 1396 1394 1394 1395 1396 1396 1398 1400 1400 1401 1403 1409 1410 1414 1419 1425 1432 1437 1442 1447 1451 1453 1456 1458 1460 1462 1466
1439 1438 1435 1431 1427 1426 1425 1423 1421 1420 1420 1416 1415 1411 1406 1403 1398 1396 1396 1394 1394 1395 1396 1397 1397 1400 1401 1406 1409 1413 1419 1424 1433 1436 1439 1445 1449 1454 1456 1458 1460 1462 1465
1437 1434 1432 1428 1425 1423 1421 1421 1419 1419 1420 1417 1416 1412 1407 1405 1404 1401 1401 1398 1395 1395 1395 1394 1396 1399 1400 1404 1410 1411 1419 1425 1433 1436 1439 1445 1449 1452 1456 1458 1460 1463 1467
1437 1434 1431 1428 1426 1423 1422 1420 1420 1418 1416 1415 1414 1412 1409 1408 1406 1405 1404 1405 1404 1401 1404 1403 1403 1407 1411 1414 1417 1417 1422 1426 1432 1436 1438 1443 1448 1451 1454 1457 1461 1464 1465
1435 1434 1431 1428 1425 1423 1422 1420 1417 1416 1414 1414 1412 1410 1410 1409 1408 1408 1408 1407 1406 1407 1408 1408 1412 1413 1416 1416 1419 1421 1426 1429 1433 1437 1440 1443 1447 1450 1453 1457 1460 1463 1464
1434 1433 1430 1427 1426 1424 1421 1419 1417 1416 1414 1414 1413 1413 1412 1410 1409 1409 1410 1410 1410 1413 1412 1414 1415 1417 1419 1421 1424 1425 1427 1430 1434 1437 1441 1445 1447 1451 1454 1456 1458 1460 1463
1433 1431 1428 1426 1424 1423 1421 1419 1418 1416 1415 1414 1414 1412 1412 1411 1409 1409 1411 1412 1413 1415 1415 1415 1418 1419 1420 1422 1425 1428 1429 1432 1434 1438 1441 1443 1446 1450 1454 1456 1457 1459 1461
Wind_Speed
34 33 32 27 26 28 27 23 20 18 17 15 14 15 12 15 13 12 12 11 10 9 9 10 10 10 11 13 15 16 19 20 22 16 13 14 13 12 12 11 14 15 11
30 32 33 32 28 29 26 22 20 19 19 17 16 16 15 14 14 14 12 11 12 11 11 11 11 10 11 13 13 13 13 13 13 13 13 11 12 12 13 14 14 13 11
24 27 26 8 18 22 23 17 20 19 19 17 17 17 14 14 16 17 15 13 13 13 11 11 12 12 16 15 14 14 15 15 17 16 14 9 10 12 14 15 13 14 11
9 6 18 10 9 11 15 17 19 19 19 18 18 17 15 14 16 18 15 15 14 15 13 12 13 13 15 14 16 16 16 14 12 15 14 13 13 14 13 14 16 14 14
5 1 13 19 19 18 14 23 21 20 18 18 19 18 17 15 16 20 17 14 15 16 15 13 13 14 15 14 12 14 13 12 11 12 11 13 16 16 15 16 17 14 17
4 9 10 13 27 25 29 26 22 21 21 20 19 18 17 14 16 21 17 14 16 19 17 16 15 17 19 19 16 18 16 13 13 14 12 13 12 16 17 19 18 20 21
14 9 8 11 41 40 30 28 25 23 20 18 17 15 17 18 19 23 23 19 18 18 17 15 16 15 19 14 15 17 21 19 16 15 14 13 12 16 13 17 20 20 21
15 14 13 16 19 19 20 22 20 19 18 16 16 17 18 20 22 20 18 19 20 22 19 19 20 20 13 16 17 18 18 18 19 16 13 12 13 14 13 9 12 15 18
4 4 12 17 20 20 19 22 18 18 20 20 19 17 22 23 24 24 23 24 21 24 22 22 21 22 21 21 20 18 16 16 18 18 18 16 14 12 12 13 15 19 25
6 6 7 10 13 15 18 15 15 23 24 16 17 17 19 22 23 23 24 25 21 23 24 26 28 27 23 25 24 21 21 20 16 16 20 18 16 16 17 16 16 20 26
6 4 4 7 8 12 14 16 18 21 19 18 20 25 25 26 24 27 27 25 23 24 27 26 24 27 31 29 26 23 23 21 18 19 12 13 11 15 17 17 16 19 22
7 3 5 8 10 12 16 13 10 12 14 18 23 25 22 25 28 27 27 27 25 27 27 28 31 28 26 29 31 26 26 23 21 19 16 18 15 12 14 15 16 16 17
10 10 8 7 7 8 11 10 10 9 12 13 12 13 13 11 15 19 18 19 22 25 32 29 31 26 31 29 29 29 30 25 19 20 19 20 18 14 14 13 14 14 13
11 12 13 11 11 10 6 9 9 11 11 13 15 16 14 15 16 16 18 23 23 27 30 34 41 34 31 32 31 31 31 24 23 25 19 18 19 19 19 17 16 14 14
10 8 8 9 13 12 14 13 10 10 16 20 21 22 18 17 16 20 21 23 17 16 18 19 25 33 33 35 30 35 34 26 26 22 20 19 20 19 18 19 17 13 11
11 9 10 10 9 9 10 11 15 14 13 16 19 22 25 28 29 26 25 27 31 31 29 28 30 31 35 35 36 34 35 30 25 24 23 18 18 18 17 16 16 14 12
11 12 12 10 10 12 12 12 13 14 14 15 14 18 22 26 27 28 27 26 27 28 31 30 28 32 34 32 34 36 32 31 27 23 18 15 13 14 14 13 10 10 9
13 14 12 12 12 11 12 13 12 13 12 10 12 18 18 22 27 25 24 26 26 24 23 25 25 26 30 35 35 30 28 28 28 25 20 18 18 18 16 15 14 12 12
13 12 13 15 12 12 11 12 11 12 10 10 11 16 22 19 16 18 19 21 20 20 20 21 24 25 30 35 33 32 32 30 24 22 19 15 12 13 13 13 14 12 12
13 14 12 13 12 11 11 8 11 10 9 11 12 14 20 20 16 10 10 16 19 18 18 21 28 29 30 32 31 26 20 17 16 14 12 11 8 11 11 11 10 11 12
11 12 14 11 12 12 13 12 10 9 8 9 9 13 15 15 12 9 7 7 12 14 21 23 28 29 26 26 24 18 16 20 15 16 15 14 14 13 14 14 12 13 12
12 11 14 14 13 14 11 14 12 8 8 6 6 7 9 8 6 8 7 8 2 10 19 24 23 20 18 17 20 23 24 21 18 14 13 15 16 16 14 11 9 10 10
8 11 11 15 13 11 13 9 8 8 5 5 6 7 6 6 6 5 9 9 7 10 14 15 18 17 18 16 14 14 17 17 13 10 15 17 13 12 12 13 13 13 11
8 10 9 11 12 9 9 9 7 7 7 4 7 7 5 1 3 5 4 2 16 15 17 13 7 10 18 12 11 13 12 13 15 16 18 18 16 16 15 14 13 12 11
8 9 9 9 10 12 10 8 9 5 2 2 3 4 5 5 2 4 8 9 10 9 10 12 12 14 15 14 14 15 17 17 17 17 18 16 14 15 14 14 13 12 11
7 9 8 8 10 11 10 9 7 4 4 5 5 7 9 7 4 7 15 13 12 10 7 9 10 9 9 11 12 11 13 16 18 20 15 15 15 14 12 11 12 11 12
Wind_Direction
204 206 204 199 201 203 204 200 199 198 218 212 216 215 223 238 228 225 215 217 242 234 239 254 255 253 237 230 235 241 249 253 255 267 272 271 257 246 246 243 243 245 254
211 212 206 200 198 200 206 207 201 204 212 214 214 216 217 238 238 232 227 223 225 231 234 236 240 250 254 244 235 247 251 248 248 260 271 263 260 252 247 235 239 237 246
203 210 222 66 188 211 203 205 213 211 212 217 215 219 220 228 240 245 239 237 230 239 234 249 251 246 245 235 228 242 248 257 250 253 255 252 237 249 251 242 232 239 252
44 285 203 129 358 246 211 204 224 216 216 214 219 220 215 225 238 245 246 247 245 248 242 234 247 248 254 256 245 237 240 245 249 256 244 235 233 249 251 235 240 243 240
68 351 262 207 192 252 240 220 214 223 221 216 223 228 214 221 240 244 251 255 254 246 242 244 246 251 250 241 251 253 234 239 246 241 245 245 234 240 256 250 242 239 237
219 177 149 215 201 221 227 220 215 218 224 220 221 223 220 224 235 241 233 243 253 254 251 244 235 252 258 258 249 238 244 236 236 237 240 240 241 265 247 245 243 234 223
190 192 171 193 192 209 221 215 212 212 219 227 228 222 224 221 228 244 251 243 244 253 254 246 247 245 248 250 263 245 235 239 241 234 240 241 236 248 255 236 233 237 238
158 158 174 209 224 221 225 230 224 213 211 221 241 237 229 226 226 240 249 259 248 242 242 243 234 236 242 225 249 259 246 243 240 234 238 241 251 236 239 229 228 209 206
201 192 202 216 222 224 222 223 212 226 227 248 255 245 235 235 243 246 243 247 247 247 239 238 242 243 231 239 234 243 235 228 243 232 215 229 235 240 228 222 215 204 199
170 231 214 232 224 237 235 230 252 260 258 250 238 241 239 238 248 249 246 240 241 244 246 243 239 236 238 239 237 227 233 231 220 243 227 225 238 243 236 233 222 213 211
196 170 202 232 227 241 243 251 261 260 258 253 252 254 254 259 252 264 256 251 237 244 244 247 247 249 238 237 241 234 231 230 220 226 224 225 224 228 223 220 221 216 212
42 322 265 267 248 241 251 261 259 250 257 248 247 253 251 260 273 266 262 259 242 234 242 249 249 247 249 238 237 235 229 229 220 217 218 210 205 217 215 223 215 212 213
23 3 346 337 305 286 280 281 295 299 302 298 285 284 285 282 280 286 283 278 274 261 244 237 240 256 260 241 238 229 226 224 222 214 217 210 197 210 218 224 218 210 211
5 351 351 352 343 324 328 307 295 286 279 277 285 282 287 283 284 277 278 281 273 270 267 256 247 244 240 240 230 222 218 213 215 223 217 211 205 202 206 218 205 203 205
342 332 319 322 320 339 339 332 315 293 276 271 273 277 282 277 269 267 260 251 254 253 262 260 251 238 231 222 220 215 212 205 212 222 214 211 210 198 201 212 207 199 198
335 320 313 313 311 308 318 325 319 332 325 293 283 278 274 269 268 260 258 261 254 257 264 252 247 237 232 230 216 211 211 210 207 211 213 210 205 205 199 204 210 203 203
322 316 308 308 300 305 313 320 322 327 327 321 307 282 278 279 275 268 261 262 258 260 259 248 239 241 232 225 219 205 205 202 204 208 196 193 190 192 198 193 191 194 185
325 325 325 311 301 300 311 317 315 317 316 322 325 329 305 283 276 272 260 257 261 265 249 236 234 240 230 216 203 195 191 193 198 199 202 201 198 199 201 206 212 193 201
331 323 316 311 299 294 298 305 306 314 313 318 328 329 345 333 301 281 260 251 257 261 242 230 236 229 222 210 194 192 192 190 190 192 189 198 206 207 211 213 214 220 221
324 316 316 321 307 298 286 307 302 297 311 317 322 327 333 351 347 312 275 256 249 253 241 230 216 210 203 204 192 188 180 173 182 180 182 185 210 197 203 199 199 203 187
318 315 310 316 309 306 304 295 293 298 299 313 338 319 340 353 1 353 328 296 277 270 241 231 222 212 200 196 161 154 171 170 173 162 152 148 162 167 173 170 168 167 172
318 316 318 316 319 313 318 314 312 303 310 317 331 339 345 17 17 62 71 74 58 201 194 196 180 170 173 170 154 149 150 145 161 167 173 183 183 190 196 199 175 178 192
326 326 335 334 321 319 320 330 322 311 310 323 315 307 321 346 6 163 117 100 122 122 113 100 103 114 124 137 151 162 163 152 159 171 176 174 173 169 166 171 181 185 186
338 342 341 343 351 335 339 328 334 313 295 299 343 9 358 25 79 139 126 71 152 137 136 127 129 153 157 158 165 160 166 171 177 169 171 175 177 175 170 178 181 184 183
334 332 335 343 346 353 345 338 335 323 343 56 347 333 15 42 343 209 180 177 171 146 159 166 169 169 162 167 169 186 185 182 188 189 177 166 180 169 180 179 179 180 188
333 337 335 347 340 339 338 353 350 329 275 294 288 292 296 306 268 224 188 200 200 209 196 174 173 178 184 196 201 200 194 190 186 172 168 175 172 173 184 183 182 180 187